www.pogodaiklimat.ru

Погода и климат >> Архив погоды >> Россия >> Якутия >> Бестяхская Звероферма


ПОГОДА в Бестяхской Звероферме

  • Прогноз погоды в Бестяхской Звероферме
  • Монитор погоды в Бестяхской Звероферме

АРХИВ ПОГОДЫ в Бестяхской Звероферме

Время (UTC), дата Ветер
(напр.,м/с)
 
Видим.   Явления Облачность Т
(С)
Тd
(С)
f
(%)
Тe
(С)
Тes
(С)
Комфортность P
(гПа)
Po
(гПа)
Тmin
(С)
Tmax
(С)
R
(мм)
R24
(мм)
S
(см)
03 20.05 СЗ 3 50 км 3/1 600 м
[Cu hum Ci fib]
+5.0 -8.8 36 +2 +10 опасность
простуды
1014.9 1005.8
06 20.05 С 3 50 км 4/4 600 м
[Cu hum]
+6.8 -9.5 30 +5 +9 1014.6 1005.5
09 20.05 СВ 3 50 км 8/1 600 м
[Cu hum Ci fib]
+5.6 -8.7 35 +3 +5 1014.6 1005.5
12 20.05 В 2 50 км ясно +4.7 -8.9 37 +3 +3 1014.6 1005.5 +7.2
15 20.05 штиль 0 50 км 4/0
[Ac trans Ci fib]
-3.7 -8.5 69 -4 -4 1014.9 1005.5
18 20.05 штиль 0 50 км 4/0
[Ac lent]
-6.4 -9.2 80 -7 -7 1014.7 1005.3
21 20.05 В 1 50 км 3/0
[Ac trans Cc]
-0.2 -5.6 67 -2 -0 1014.9 1005.6
00 21.05 ЮВ 2 50 км 1/0
[Ci fib]
+5.5 -7.4 39 +4 +10 1013.9 1004.9 -6.6
03 21.05 ЮВ 3 50 км 10/1 1000 м
[Cu hum Cs]
+9.6 -6.3 32 +8 +15 1012.8 1003.9
06 21.05 ЮВ 3 50 км 8/0
[Cc]
+11.0 -7.9 26 +10 +16 1011.7 1002.8
09 21.05 ЮВ 3 50 км 3/0
[Ci fib]
+11.6 -9.8 21 +11 +13 1010.7 1001.8
12 21.05 ЮВ 1 50 км 4/0
[Ci fib]
+10.4 -9.8 23 +11 +11 1009.6 1000.7 +12.0
15 21.05 штиль 0 50 км 3/0
[Ac lent Ci fib]
-1.0 -10.2 50 -1 -1 1008.8 999.6
18 21.05 штиль 0 50 км 3/0
[Cc]
-3.9 -8.4 71 -5 -5 1008.3 998.9
21 21.05 В 1 50 км ясно +4.2 -3.7 56 +3 +5 1006.4 997.4
00 22.05 ЮВ 3 50 км ясно +9.7 -6.6 31 +8 +14 1004.6 995.7 -4.3
03 22.05 ЮВ 3
{10}
50 км ясно +14.0 -7.8 21 +13 +23 1002.1 993.5
06 22.05 ЮВ 4
{10}
50 км 3/0
[Ci fib]
+15.0 -8.1 20 +14 +20 998.7 990.1
09 22.05 ЮВ 4-10
{10}
50 км 8/0
[Ci fib]
+16.6 -7.8 18 +16 +18 996.7 988.1
12 22.05 штиль 0
{10}
50 км 8/0
[Ci fib]
+13.2 -8.1 22 +13 +14 995.3 986.7 +16.8
15 22.05 штиль 0 50 км 10/3 600 м
[Cu Sc Ac trans Cc]
+1.4 -8.2 49 +1 +1 994.4 985.3
18 22.05 ЮВ 1 50 км 8/0
[Ac trans Cc]
+5.7 -2.3 56 +5 +5 993.7 984.9
21 22.05 ЮВ 1 50 км 8/4 600 м
[Cu Sc Cc]
+5.9 -0.7 63 +5 +6 993.9 985.0
00 23.05 ЮВ 1 50 км 10/6 600 м
[Sc Ac trans Ci fib]
+9.4 +1.4 57 +9 +11 994.1 985.3 +1.3
03 23.05 В 2 50 км 10/1 600 м
[Cu hum Ac trans Cs]
+16.1 +2.6 40 +16 +21 993.8 985.2
06 23.05 В 2 50 км 10/8 600 м
[Cb cap Ac trans Cs]
+16.4 +1.5 37 +17 +18 993.8 985.2
09 23.05 С 1 50 км 10/6 600 м
[Cb cap Ac trans Cs]
+16.4 +0.2 33 +17 +18 994.4 985.8
12 23.05 штиль 0 50 км 10/4 600 м
[Sc Ac trans Ci fib]
+13.5 +3.8 52 +13 +13 995.3 986.7 +18.0
15 23.05 СВ 1 50 км 10/8 600 м
[Cu Sc Ac trans Ci fib]
+8.6 +3.0 68 +8 +8 995.9 987.1
18 23.05 Ю 1 50 км 10/4 600 м
[Sc Ac trans Ci fib]
+5.6 +1.3 74 +5 +5 996.1 987.2
21 23.05 В 1 50 км 10/0
[Ac trans Ci fib]
+5.2 +1.7 78 +4 +5 996.6 987.7
00 24.05 ЮВ 1 50 км 10/4 600 м
[Sc Ac trans Cs]
+11.0 +3.5 60 +11 +13 997.1 988.3 +4.8
03 24.05 Ю 3 50 км 10/3 600 м
[Cu med, cong Ac trans Cc]
+17.4 +3.4 39 +17 +21 996.6 988.0
06 24.05 ЮВ 2 50 км 10/6 600 м
[Cb cap Ac trans Cs]
+16.2 +3.4 42 +16 +18 996.5 987.9
09 24.05 ЮЗ 3 50 км {ливн. осадки} 10/8 600 м
[Cb cap Ac trans Ci fib]
+13.3 +4.1 54 +12 +13 998.6 990.0
12 24.05 З 2 50 км {ливн. осадки} 9/4 600 м
[Sc Ac trans Ci fib]
+11.3 +5.2 66 +10 +10 999.6 990.8 +18.2 0.0
15 24.05 З 2 50 км 8/6 600 м
[Sc Ac trans Ci fib]
+9.6 +4.2 69 +8 +8 1000.4 991.6
18 24.05 З 2 50 км 8/6 600 м
[Sc Ac trans]
+7.4 +4.2 80 +5 +5 1001.4 992.5
21 24.05 З 2 50 км 6/6 600 м
[Sc]
+7.7 +4.8 82 +6 +6 1001.8 993.0
00 25.05 З 2 50 км 6/0
[Ac trans]
+11.1 +4.7 65 +10 +14 1003.2 994.4 +6.2
03 25.05 СВ 2 50 км 9/8 600 м
[Cu med, cong Ac trans Cc]
+13.6 +4.8 55 +13 +15 1003.7 995.0
06 25.05 СВ 2 50 км 8/8 600 м
[Cu med, cong]
+13.5 +1.1 43 +13 +15 1004.7 996.0
09 25.05 С 3 50 км {ливн. осадки} 9/8 600 м
[Cb cap Ci fib]
+12.5 -1.1 39 +11 +12 1006.3 997.4
12 25.05 СЗ 2 50 км {ливн. осадки} 10/4 600 м
[Sc Ac trans Cc]
+11.2 -5.5 31 +11 +11 1008.5 999.6 +15.8 0.0
15 25.05 СЗ 2 50 км 3/0
[Ac trans]
+5.1 -3.1 55 +3 +3 1009.9 1000.9
18 25.05 СЗ 2 50 км 1/0
[Ac trans]
+2.6 -2.9 67 -0 -0 1011.4 1002.2
21 25.05 СЗ 3 50 км 3/0
[Cc]
+4.4 -1.7 65 +1 +2 1012.5 1003.5
00 26.05 С 4 50 км 3/0
[Ci fib]
+8.8 -1.7 48 +6 +11 1013.7 1004.8 +1.9
03 26.05 С 5-10
{12}
50 км 3/0
[Ci fib]
+12.1 -1.4 39 +10 +16 1014.8 1005.9
06 26.05 С 4-10
{12}
50 км 3/0
[Ci fib]
+13.1 -4.0 30 +12 +18 1014.7 1005.9
09 26.05 С 3
{10}
50 км 1/0
[Cc]
+14.2 -4.9 26 +14 +17 1014.9 1006.1
12 26.05 С 2 50 км ясно +11.2 -4.6 33 +11 +11 1015.7 1006.8 +14.8
15 26.05 СЗ 2 50 км 5/0
[Ac trans Cc]
+2.8 +1 +1 1016.0 1006.7
18 26.05 СЗ 1 50 км 5/0
[Ac lent Cc]
+0.7 -5.0 66 -1 -1 1016.0 1006.7
21 26.05 СЗ 1 50 км 4/4 600 м
[Cu med, cong]
+10.5 -0.1 48 +11 +12 1015.4 1006.5
00 27.05 В 2 50 км 6/3 600 м
[Cu med, cong Ac trans Cc]
+14.6 -1.6 33 +15 +18 1014.5 1005.7 -0.2

 

Местоположение метеостанции Бестяхская Звероферма (Якутия, Россия): широта 65.30 долгота 124.10 высота над уровнем моря 73 м.

В архиве по умолчанию представлена погода в Бестяхской Звероферме за последнюю неделю. Архивные данные за месяц целиком и за предыдущие месяцы, начиная с января 2011 года, Вы можете получить, выбрав интересующий диапазон дат из раскрывающегося списка и нажав кнопку "Ввод!".


*Определитесь, кто Вы:
робот инопланетянин человек

Внимание! Время в таблицах - всемирное. Для получения местного времени необходимо прибавить поправку, которая равна 9 ч.

Смотрите также архив погоды в соседних городах и на ближайших метеорологических станциях:

Погода в Хатырык-Хомо (Якутия, Россия) (154 км)
Погода в Сого-Хае (Якутия, Россия) (157 км)
Погода в Жиганске (Якутия, Россия) (169 км)
Погода в Вилюйске (Якутия, Россия) (208 км)
Погода в Сангаре (Якутия, Россия) (217 км)
Погода в Себян-Кюеле (Якутия, Россия) (274 км)
Погода в Верхневилюйске (Якутия, Россия) (278 км)
Погода в Эйке (Якутия, Россия) (317 км)
Погода в Батамае (Якутия, Россия) (322 км)
Погода в Сеген-Кюеле (Якутия, Россия) (329 км)

Пояснения к столбцам:

Ветер - указаны скорость ветра в м/с - средняя за 10 мин, порывы в срок и между сроками (в фигурных скобках) и направление, откуда дует ветер: С - северный, СВ - северо-восточный, В - восточный, ЮВ - юго-восточный, Ю - южный, ЮЗ - юго-западный, З - западный, СЗ - северо-западный.
Видимость - горизонтальная дальность видимости в метрах или километрах. При видимости от 1 до 10 км при отсутствии осадков обычно наблюдается дымка, при ухудшении видимости до 1 км и менее - туман. В сухую погоду видимость может ухудшаться дымом, пылью или мглою.
Явления - указаны атмосферные явления, наблюдавшиеся в срок или в последний час перед сроком; фигурными скобками обозначены явления, наблюдавшиеся между сроками (за 1-3 часа до срока); квадратными скобками обозначены град или гололедные отложения с указанием их диаметра в мм.
Облачность - указаны через наклонную черту общая и нижняя облачность в баллах и высота нижней границы облаков в метрах; квадратными скобками обозначены формы облаков: Ci - перистые, Cs - перисто-слоистые, Cc - перисто-кучевые, Ac - высококучевые, As - высокослоистые, Sc - слоисто-кучевые, Ns - слоисто-дождевые, Cu - кучевые, Cb - кучево-дождевые. Подробнее классификацию облаков см. в Атласе облаков (PDF).
T - Температура воздуха - температура, измеренная на высоте 2 м над землей.
Td - Температура точки росы - температура, при понижении до которой содержащийся в воздухе водяной пар достигнет насыщения.
f - Относительная влажность воздуха - влажноcть воздуха, измеренная на высоте 2 м над землей.
Te - Эффективная температура - температура, которую ощущает одетый по сезону человек в тени. Характеристика душности погоды. При расчете учитывается влияние влажности воздуха и скорости ветра на теплоощущения человека.
Tes - Эффективная температура на солнце - температура, которую ощущает человек, с поправкой на солнечный нагрев. Характеристика знойности погоды. Зависит от высоты солнца над горизонтом, облачности и скорости ветра. Ночью, в пасмурную погоду, а также при ветре 12 м/с и более поправка равна нулю.
P - Атмосферное давление - приведенное к уровню моря атмосферное давление.
Po - Атмосферное давление - измеренное на уровне метеостанции атмосферное давление.
Tmin - Минимальная температура - минимум температуры воздуха на высоте 2 м над землей.
Tmax - Максимальная температура - максимум температуры воздуха на высоте 2 м над землей.
R - Количество осадков - Количество выпавших осадков за период времени, мм. При наведении курсора мыши на число - период времени, за который выпало указанное количество осадков.
R24 - Количество осадков - Количество выпавших осадков за 24 часа, мм.
S - Снежный покров - Высота снежного покрова, см. При наведении курсора мыши на число - состояние снежного покрова и степень покрытия местности в баллах.